Weather History for Crestview, FL

Change the Weather History Date:

Tuesday, November 15, 2011

  Actual Average Record
Temperature  
Mean Temperature 68 °F -  
Max Temperature 77 °F - - ()
Min Temperature 60 °F - - ()
Cooling Degree Days 4    
Growing Degree Days 18 (Base 50)    
Moisture  
Dew Point 67 °F    
Average Humidity 96    
Maximum Humidity 100    
Minimum Humidity 73    
Precipitation  
Precipitation 0.01 in - - ()
Sea Level Pressure  
Sea Level Pressure 29.98 in    
Wind  
Wind Speed 4 mph (SE)    
Max Wind Speed 17 mph    
Max Gust Speed 23 mph    
Visibility 5 miles    
Events Fog , Rain    
T = Trace of Precipitation, MM = Missing Value Source: NWS Daily Summary

Daily Weather History Graph

Daily Weather History Graph

Search for Another Location

Airport:

Trip Planner

Search our weather history database for the weather conditions in past years. The results will help you decide how hot, cold, wet, or windy it might be!

Date:

Astronomy

Nov. 15, 2011 Rise Set
Actual Time 6:12 AM CST 4:48 PM CST
Civil Twilight 5:46 AM CST 5:14 PM CST
Nautical Twilight 5:17 AM CST 5:43 PM CST
Astronomical Twilight 4:48 AM CST 6:12 PM CST
Moon 8:58 PM CST (11/15) 10:08 AM CST (11/15)
Length of Visible Light 11h 27m
Length of Day
10h 36m
Waning Gibbous, 79% of the Moon is Illuminated
Nov 15
Waning Gibbous
Nov 18
Last Quarter
Nov 25
New
Dec 2
First Quarter
Dec 10
Full

Hourly Weather History & Observations

Time (CST) Temp. Dew Point Humidity Pressure Visibility Wind Dir Wind Speed Gust Speed Precip Events Conditions
12:55 AM 65.3 °F 64.6 °F 98% 30.01 in 10.0 mi SE 3.5 mph - N/A   Clear
1:55 AM 64.4 °F 63.9 °F 98% 30.00 in 10.0 mi SE 3.5 mph - N/A   Clear
2:29 AM 64.4 °F 62.6 °F 94% 29.99 in 2.5 mi Calm Calm - N/A   Clear
2:31 AM 62.6 °F 62.6 °F 100% 29.99 in 2.0 mi Calm Calm - N/A   Clear
2:33 AM 62.6 °F 62.6 °F 100% 29.99 in 1.8 mi Calm Calm - N/A   Clear
2:38 AM 62.6 °F 62.6 °F 100% 29.99 in 1.2 mi Calm Calm - N/A   Clear
2:40 AM 62.6 °F 62.6 °F 100% 29.99 in 1.0 mi Calm Calm - N/A   Clear
2:42 AM 62.6 °F 60.8 °F 94% 29.99 in 0.8 mi Calm Calm - N/A   Clear
2:46 AM 62.6 °F 60.8 °F 94% 29.99 in 0.5 mi Calm Calm - N/A Fog Fog
2:50 AM 60.8 °F 60.8 °F 100% 29.99 in 0.8 mi Calm Calm - N/A   Clear
2:51 AM 60.8 °F 60.8 °F 100% 29.99 in 0.5 mi Calm Calm - N/A Fog Fog
2:55 AM 61.5 °F 60.8 °F 97% 29.99 in 0.5 mi Calm Calm - N/A Fog Fog
3:08 AM 60.8 °F 60.8 °F 100% 29.99 in 0.2 mi Calm Calm - N/A Fog Fog
3:21 AM 60.8 °F 60.8 °F 100% 29.99 in 0.2 mi Calm Calm - N/A Fog Fog
3:22 AM 60.8 °F 60.8 °F 100% 29.99 in 0.5 mi Calm Calm - N/A Fog Fog
3:28 AM 60.8 °F 60.8 °F 100% 29.98 in 0.8 mi ESE 3.5 mph - N/A   Partly Cloudy
3:32 AM 60.8 °F 60.8 °F 100% 29.98 in 1.0 mi SE 3.5 mph - N/A   Partly Cloudy
3:34 AM 60.8 °F 60.8 °F 100% 29.98 in 1.2 mi SE 3.5 mph - N/A   Partly Cloudy
3:36 AM 60.8 °F 60.8 °F 100% 29.98 in 1.5 mi Calm Calm - N/A   Scattered Clouds
3:38 AM 62.6 °F 60.8 °F 94% 29.98 in 2.0 mi Calm Calm - N/A   Scattered Clouds
3:39 AM 62.6 °F 62.6 °F 100% 29.98 in 2.5 mi Calm Calm - N/A   Scattered Clouds
3:40 AM 62.6 °F 62.6 °F 100% 29.98 in 3.0 mi Calm Calm - N/A   Scattered Clouds
3:44 AM 62.6 °F 62.6 °F 100% 29.98 in 6.0 mi Calm Calm - N/A   Mostly Cloudy
3:48 AM 62.6 °F 62.6 °F 100% 29.99 in 7.0 mi Calm Calm - N/A   Mostly Cloudy
3:55 AM 63.3 °F 63.1 °F 99% 29.98 in 6.0 mi Calm Calm - N/A   Mostly Cloudy
4:19 AM 62.6 °F 62.6 °F 100% 29.98 in 4.0 mi ESE 3.5 mph - N/A   Overcast
4:55 AM 65.7 °F 65.5 °F 99% 29.97 in 9.0 mi SE 8.1 mph - N/A   Mostly Cloudy
5:03 AM 66.2 °F 66.2 °F 100% 29.97 in 10.0 mi SE 8.1 mph - N/A   Scattered Clouds
5:23 AM 66.2 °F 66.2 °F 100% 29.98 in 10.0 mi SSE 6.9 mph - N/A   Mostly Cloudy
5:36 AM 66.2 °F 66.2 °F 100% 29.98 in 10.0 mi SE 6.9 mph - N/A   Mostly Cloudy
5:55 AM 67.5 °F 67.1 °F 99% 29.99 in 10.0 mi SE 4.6 mph - N/A   Overcast
6:02 AM 68.0 °F 68.0 °F 100% 29.99 in 9.0 mi SE 3.5 mph - N/A   Overcast
6:11 AM 68.0 °F 68.0 °F 100% 29.99 in 4.0 mi SE 5.8 mph - N/A   Overcast
7:13 AM 68.0 °F 68.0 °F 100% 30.01 in 0.5 mi SE 3.5 mph - N/A Fog Fog
7:20 AM 68.0 °F 68.0 °F 100% 30.01 in 0.8 mi SE 3.5 mph - N/A   Mist
7:33 AM 68.0 °F 68.0 °F 100% 30.01 in 1.0 mi SE 5.8 mph - N/A   Mist
7:38 AM 68.0 °F 68.0 °F 100% 30.01 in 1.2 mi ESE 6.9 mph - N/A   Overcast
7:42 AM 68.0 °F 68.0 °F 100% 30.01 in 1.5 mi SE 5.8 mph - N/A   Overcast
7:47 AM 68.0 °F 68.0 °F 100% 30.02 in 1.8 mi Variable 4.6 mph - N/A   Overcast
7:51 AM 68.0 °F 68.0 °F 100% 30.02 in 2.0 mi SE 4.6 mph - N/A Rain Light Rain
7:55 AM 68.9 °F 68.5 °F 99% 30.02 in 2.0 mi SE 5.8 mph - 0.00 in Rain Light Rain
8:02 AM 68.0 °F 68.0 °F 100% 30.02 in 2.5 mi Calm Calm - N/A   Overcast
8:06 AM 68.0 °F 68.0 °F 100% 30.02 in 3.0 mi SE 4.6 mph - N/A   Overcast
8:08 AM 68.0 °F 68.0 °F 100% 30.02 in 3.0 mi ESE 6.9 mph - N/A   Light Drizzle
8:13 AM 68.0 °F 68.0 °F 100% 30.02 in 2.5 mi ESE 5.8 mph - N/A   Light Drizzle
8:16 AM 69.8 °F 68.0 °F 94% 30.02 in 2.0 mi SE 5.8 mph - N/A   Light Drizzle
8:20 AM 69.8 °F 68.0 °F 94% 30.02 in 1.8 mi Variable 5.8 mph - N/A   Light Drizzle
8:27 AM 69.8 °F 68.0 °F 94% 30.02 in 2.0 mi SE 5.8 mph - N/A Rain Light Rain
8:31 AM 69.8 °F 68.0 °F 94% 30.01 in 2.5 mi ESE 5.8 mph - N/A   Light Drizzle
8:34 AM 69.8 °F 69.8 °F 100% 30.01 in 3.0 mi SE 6.9 mph - N/A   Overcast
8:50 AM 69.8 °F 69.8 °F 100% 30.01 in 7.0 mi SE 6.9 mph - N/A   Overcast
8:55 AM 69.6 °F 69.3 °F 99% 30.03 in 2.0 mi SE 9.2 mph - 0.00 in   Overcast
9:27 AM 69.8 °F 69.8 °F 100% 30.02 in 2.5 mi SE 9.2 mph - N/A   Overcast
9:30 AM 69.8 °F 69.8 °F 100% 30.02 in 2.5 mi SE 9.2 mph - N/A   Overcast
9:40 AM 71.6 °F 69.8 °F 94% 30.02 in 5.0 mi SSE 8.1 mph - N/A   Overcast
9:55 AM 70.9 °F 70.7 °F 99% 30.04 in 5.0 mi SE 6.9 mph - N/A   Overcast
10:08 AM 71.6 °F 71.6 °F 100% 30.02 in 6.0 mi SSE 11.5 mph - N/A   Overcast
10:30 AM 71.6 °F 71.6 °F 100% 30.01 in 10.0 mi SSE 10.4 mph - N/A   Overcast
10:55 AM 73.8 °F 70.3 °F 89% 30.01 in 10.0 mi SSE 13.8 mph - N/A   Mostly Cloudy
11:03 AM 75.2 °F 69.8 °F 83% 30.00 in 10.0 mi SSE 12.7 mph - N/A   Mostly Cloudy
11:55 AM 75.9 °F 68.7 °F 78% 29.99 in 10.0 mi SSE 17.3 mph 23.0 mph N/A   Mostly Cloudy
12:27 PM 77.0 °F 68.0 °F 74% 29.97 in 10.0 mi SSE 15.0 mph 23.0 mph N/A   Mostly Cloudy
12:55 PM 76.8 °F 67.6 °F 73% 29.96 in 10.0 mi SSE 17.3 mph - N/A   Mostly Cloudy
1:55 PM 77.2 °F 68.0 °F 73% 29.94 in 10.0 mi SE 15.0 mph - N/A   Mostly Cloudy
2:21 PM 75.2 °F 68.0 °F 78% 29.93 in 10.0 mi SSE 13.8 mph - N/A   Mostly Cloudy
2:55 PM 75.9 °F 68.9 °F 79% 29.93 in 10.0 mi SSE 11.5 mph 18.4 mph N/A   Mostly Cloudy
3:21 PM 75.2 °F 69.8 °F 83% 29.92 in 10.0 mi SSE 11.5 mph - N/A   Mostly Cloudy
3:55 PM 74.8 °F 69.8 °F 84% 29.91 in 10.0 mi SE 9.2 mph 21.9 mph N/A   Mostly Cloudy
4:35 PM 73.4 °F 69.8 °F 88% 29.91 in 10.0 mi SSE 10.4 mph - N/A   Overcast
4:41 PM 73.4 °F 69.8 °F 88% 29.90 in 10.0 mi SSE 11.5 mph - N/A   Overcast
4:55 PM 73.8 °F 70.3 °F 89% 29.92 in 10.0 mi SSE 11.5 mph - N/A   Overcast
5:29 PM 73.4 °F 69.8 °F 88% 29.92 in 10.0 mi SSE 9.2 mph - N/A   Overcast
5:39 PM 73.4 °F 69.8 °F 88% 29.92 in 10.0 mi SSE 9.2 mph - N/A Rain Light Rain Showers
5:55 PM 73.2 °F 70.9 °F 92% 29.93 in 10.0 mi SSE 6.9 mph - 0.00 in   Overcast
6:08 PM 73.4 °F 71.6 °F 94% 29.93 in 10.0 mi SSE 10.4 mph - N/A Rain Light Rain Showers
6:24 PM 73.4 °F 71.6 °F 94% 29.93 in 10.0 mi SSE 6.9 mph - N/A   Overcast
6:39 PM 73.4 °F 71.6 °F 94% 29.93 in 10.0 mi SSW 8.1 mph - N/A   Overcast
6:55 PM 72.5 °F 71.4 °F 96% 29.94 in 10.0 mi SSE 8.1 mph - 0.01 in   Overcast
7:55 PM 72.9 °F 72.3 °F 98% 29.94 in 10.0 mi SSE 6.9 mph - N/A   Overcast
8:55 PM 73.0 °F 72.5 °F 98% 29.94 in 9.0 mi SSE 9.2 mph - N/A   Overcast
9:55 PM 72.9 °F 72.5 °F 99% 29.93 in 8.0 mi SSE 8.1 mph - N/A   Overcast
10:55 PM 73.4 °F 72.9 °F 98% 29.92 in 10.0 mi SSE 13.8 mph - N/A   Overcast
11:55 PM 73.4 °F 72.9 °F 98% 29.92 in 9.0 mi SSE 11.5 mph - N/A   Overcast